C/2024 V2 ( Sarneczky )

Japanese version
Home page
Updated on March 23, 2025

---------------------------------------------------------------------

* Profile

Discovery Date November 10, 2024
Magnitude 19.8 mag
Discoverer Krisztian Sarneczky (Piszkesteto Observatory in Hungary)

* Orbital Elements

Epoch 2024 Oct. 17.0 TT = JDT 2460600.5
T 2024 Nov. 3.82424 TT                                  Pike
q   1.2429400            (2000.0)            P               Q
z  +0.0254221      Peri.   13.71777     -0.18120957     +0.14889945
 +/-0.0022875      Node   102.20151     +0.78214390     -0.57739324
e   0.9684018      Incl.   95.97130     +0.59616609     +0.80277394
From 60 observations 2024 Nov. 10-Dec. 8, mean residual 1".0.

* Magnitudes Graph

        m1 = 18.5 + 5 log d + 10.0 log r

---------------------------------------------------------------------

The orbital elements are published on M.P.E.C. 2024-Y127.
The magnitudes graphs are made with Comet for Windows.

---------------------------------------------------------------------

Copyright(C) Seiichi Yoshida (comet@aerith.net). All rights reserved.